Location: Peterborough
(44.3091°N, 78.3197°W)
Time: 07:33:19
(UTC-04:00)

Vanguard 1 Rocket - Pass Details

Date: 28 March 2023
Orbit: 655 x 4220 km, 34.3° (Epoch: 04 June)

Event Time Altitude Azimuth Distance (km) Brightness Sun altitude
Rises 21:18:08 0° 214° (SW) 8,247 12.4 -18.5°
Reaches altitude 10° 21:24:25 10° 208° (SSW) 7,375 12.0 -19.5°
Maximum altitude 21:46:42 39° 150° (SSE) 4,924 10.6 -23.1°
Enters shadow 21:54:41 31° 115° (ESE) 4,868 10.4 -24.3°
Drops below altitude 10° 22:03:15 10° 90° (E) 5,628 - -25.6°
Sets 22:07:08 0° 83° (E) 6,219 - -26.2°
